Regional Weather Roundup
Issued by NWS Kansas City/Pleasant Hill, MO

Home | Current Version | Previous Version | Graphics & Text | Print | Product List | Glossary Off
Versions: 1 2 3 4 5 6 7 8 9 10 11 12 13 14 15 16 17 18 19 20 21 22 23 24 25 26 27

000
ASUS43 KEAX 140710
RWREAX

WEATHER ROUNDUP FOR EASTERN KANSAS AND NORTHWEST MISSOURI
NATIONAL WEATHER SERVICE KANSAS CITY/PLEASANT HILL MO
100 AM CST THU DEC 14 2017

KSZ040-057-103>105-MOZ028-029-037-043-140800-
...KANSAS CITY METROPOLITAN AREA...

CITY           SKY/WX    TMP DP  RH WIND       PRES   REMARKS
K.C. INTL      CLOUDY    38  28  67 N8        29.95F WCI  32
K.C. DOWNTOWN  CLOUDY    40  28  62 N8        29.95F WCI  34
LEES SUMMIT    CLOUDY    39  28  64 N12       29.95F WCI  32
OLATHE - IXD   CLEAR     29  25  85 N8        29.96F WCI  21
OLATHE - OJC   PTCLDY    34  27  75 N6        29.94F WCI  29
LAWRENCE       CLEAR     26  22  84 NW6       29.97F WCI  19

$$

MOZ001>008-011>017-020>025-030>033-038>040-044>046-053-054-140800-
...NORTHERN AND CENTRAL MISSOURI...

CITY           SKY/WX    TMP DP  RH WIND       PRES   REMARKS
ST. JOSEPH     CLOUDY    38  27  64 N13       29.99R WCI  30
MOSBY          CLOUDY    39  27  60 N12       29.97S WCI  32
WARRENSBURG    CLOUDY    36  28  75 NW6       29.95F WCI  31
WHITEMAN AFB   MOCLDY    38  27  64 N6        29.90F WCI  34
CLINTON        CLEAR     32  25  74 N7        29.94F WCI  26
SEDALIA        CLOUDY    40  27  59 N13       29.95F WCI  32
WARSAW         NOT AVBL
CHILLICOTHE      N/A     36  22  56 N5        29.97S WCI  32
KIRKSVILLE     CLOUDY    33  26  75 N17G28    29.94R WCI  22

$$

MOZ041-047>049-056>058-063>065-088>090-097-140800-
...EASTERN AND SOUTHERN MISSOURI...

CITY           SKY/WX    TMP DP  RH WIND       PRES   REMARKS
ST. LOUIS INTL CLOUDY    38  23  55 NW17G25   29.89S WCI  28
SPIRIT OF STL  MOCLDY    38  23  55 NW13G21   29.91R WCI  30
COLUMBIA       CLOUDY    37  22  54 N17       29.94R WCI  27
JEFFERSON CITY CLOUDY    40  23  50 N8        29.95R WCI  34
ROLLA          CLOUDY    39  26  59 N12       29.91R WCI  32
OSAGE BEACH    CLOUDY    39  27  62 N5        29.93S
SPRINGFIELD    CLEAR     38  28  67 N9        29.90S WCI  31
BRANSON        MOCLDY    41  27  56 CALM      29.91R
JOPLIN         CLEAR     40  29  64 N10       29.95R WCI  33
WEST PLAINS    CLEAR     41  27  57 N7G20     29.89R

$$

IAZ060-094-KSZ022-034>040-054-083-096-NEZ052-066-093-140800-
...KANSAS...SOUTHEAST NEBRASKA AND IOWA...

CITY           SKY/WX    TMP DP  RH WIND       PRES   REMARKS
TOPEKA         PTCLDY    34  28  79 NW7       29.98F WCI  28
MANHATTAN      MOCLDY    36  27  69 N3        30.02R
EMPORIA        CLEAR     31  24  75 N7        30.00R WCI  24
CHANUTE        CLEAR     39  28  64 N7        29.98S WCI  34
WICHITA        PTCLDY    38  24  57 N9        30.00R WCI  31
OMAHA          CLOUDY    37  25  61 N14       30.00R WCI  28
LINCOLN        CLOUDY    38  24  57 N15       30.02F WCI  29
FALLS CITY     CLOUDY    39  26  59 N9        29.99R WCI  33
LAMONI         CLOUDY    32  21  64 N13       29.95R WCI  22
DES MOINES     MOCLDY    29  19  66 N12       29.96S WCI  19

$$





USA.gov is the U.S. government's official web portal to all federal, state and local government web resources and services.